KC0AFB Weather Reports


Display with metric or nautical units.
time (UTC)temp
F
wind
direction
speed
MPH
gust
MPH
rain 1hr
in
rain 24hr
in
rain mn
in
humidity
%
barometer
mb
20260508094414 42 77 0.0 0.0 0.00 0.00 0.00 54 1008.1
20260508093910 43 76 0.0 0.0 0.00 0.00 0.00 50 1008.0
20260508093408 42 76 0.0 0.0 0.00 0.00 0.00 47 1008.1
20260508092905 42 76 0.0 1.0 0.00 0.00 0.00 49 1008.2
20260508092403 42 76 0.0 0.0 0.00 0.00 0.00 49 1008.0
20260508091902 41 64 1.0 1.0 0.00 0.00 0.00 50 1007.9
20260508091358 41 58 1.0 1.0 0.00 0.00 0.00 50 1008.1
20260508090855 42 34 1.0 1.0 0.00 0.00 0.00 50 1008.1
20260508090354 44 34 1.0 1.0 0.00 0.00 0.00 46 1008.2
20260508085849 45 15 1.0 2.0 0.00 0.00 0.00 44 1008.0
20260508085346 44 58 1.0 1.0 0.00 0.00 0.00 44 1008.2
20260508084843 43 60 1.0 1.0 0.00 0.00 0.00 46 1008.1
20260508084339 41 59 2.0 2.0 0.00 0.00 0.00 50 1008.1
20260508083837 42 74 0.0 0.0 0.00 0.00 0.00 50 1008.0
20260508083335 41 68 1.0 1.0 0.00 0.00 0.00 51 1008.0
20260508082834 42 81 0.0 1.0 0.00 0.00 0.00 52 1008.3
20260508082332 43 60 0.0 1.0 0.00 0.00 0.00 47 1008.4
20260508081829 42 48 1.0 1.0 0.00 0.00 0.00 47 1008.5
20260508081326 42 59 2.0 2.0 0.00 0.00 0.00 48 1008.4
20260508080823 42 65 1.0 2.0 0.00 0.00 0.00 49 1008.5
20260508080321 43 60 2.0 2.0 0.00 0.00 0.00 47 1008.7
20260508075817 43 55 2.0 2.0 0.00 0.00 0.00 47 1008.7
20260508075314 43 47 1.0 1.0 0.00 0.00 0.00 47 1008.7
20260508074812 44 51 1.0 1.0 0.00 0.00 0.00 46 1008.7
20260508074309 46 32 2.0 2.0 0.00 0.00 0.00 43 1008.8
20260508073806 46 7 2.0 2.0 0.00 0.00 0.00 43 1008.6
20260508073304 46 10 2.0 2.0 0.00 0.00 0.00 43 1008.7
20260508072800 44 41 1.0 1.0 0.00 0.00 0.00 45 1008.5
20260508072257 45 56 1.0 1.0 0.00 0.00 0.00 46 1008.6
20260508071754 44 55 1.0 1.0 0.00 0.00 0.00 45 1008.7
20260508071252 44 59 2.0 2.0 0.00 0.00 0.00 46 1008.6
20260508070749 45 73 0.0 0.0 0.00 0.00 0.00 46 1008.6
20260508070248 44 64 1.0 1.0 0.00 0.00 0.00 46 1008.9
20260508065744 45 113 0.0 0.0 0.00 0.00 0.00 45 1008.6
20260508065243 46 133 0.0 1.0 0.00 0.00 0.00 43 1008.8
20260508064740 46 132 0.0 1.0 0.00 0.00 0.00 43 1009.0
20260508064238 47 133 0.0 1.0 0.00 0.00 0.00 44 1008.9
20260508063735 47 103 1.0 1.0 0.00 0.00 0.00 42 1008.9
20260508063233 48 120 2.0 2.0 0.00 0.00 0.00 42 1008.8
20260508062730 48 132 3.0 5.0 0.00 0.00 0.00 41 1008.7
20260508062228 48 143 4.0 5.0 0.00 0.00 0.00 41 1008.7
20260508061724 48 128 4.0 5.0 0.00 0.00 0.00 40 1008.7
20260508061222 48 109 2.0 2.0 0.00 0.00 0.00 41 1008.9
20260508060718 48 115 3.0 3.0 0.00 0.00 0.00 41 1008.7
20260508060216 48 133 3.0 3.0 0.00 0.00 0.00 41 1008.7
20260508055711 48 124 2.0 2.0 0.00 0.00 0.00 40 1008.8
20260508055208 49 101 2.0 2.0 0.00 0.00 0.00 39 1008.8
20260508054705 49 126 3.0 3.0 0.00 0.00 0.00 40 1009.0
20260508054203 49 140 3.0 3.0 0.00 0.00 0.00 39 1008.9
20260508053659 50 138 3.0 3.0 0.00 0.00 0.00 38 1008.8
20260508053157 50 95 3.0 3.0 0.00 0.00 0.00 37 1009.3
20260508052654 50 92 4.0 5.0 0.00 0.00 0.00 37 1009.0
20260508052151 51 131 3.0 5.0 0.00 0.00 0.00 36 1009.3
20260508051647 50 98 5.0 6.0 0.00 0.00 0.00 37 1009.0
20260508051143 50 130 4.0 5.0 0.00 0.00 0.00 38 1008.8
20260508050639 51 102 4.0 5.0 0.00 0.00 0.00 36 1008.9
20260508050137 51 119 3.0 3.0 0.00 0.00 0.00 36 1008.7
20260508045632 51 76 2.0 3.0 0.00 0.00 0.00 37 1008.8
20260508045130 51 78 6.0 7.0 0.00 0.00 0.00 36 1009.0
20260508044627 51 90 5.0 6.0 0.00 0.00 0.00 36 1008.8
20260508044123 51 61 4.0 6.0 0.00 0.00 0.00 37 1009.0
20260508043620 51 56 5.0 7.0 0.00 0.00 0.00 37 1009.2
20260508043118 50 65 5.0 7.0 0.00 0.00 0.00 37 1009.0
20260508042614 50 71 4.0 5.0 0.00 0.00 0.00 37 1009.2
20260508042112 50 56 4.0 6.0 0.00 0.00 0.00 37 1009.3
20260508041607 50 39 4.0 5.0 0.00 0.00 0.00 37 1009.3
20260508041104 51 51 4.0 5.0 0.00 0.00 0.00 36 1009.6
20260508040601 52 26 4.0 5.0 0.00 0.00 0.00 35 1009.7
20260508040059 52 47 4.0 5.0 0.00 0.00 0.00 35 1009.4
20260508035555 52 45 2.0 2.0 0.00 0.00 0.00 34 1009.5
20260508035053 53 33 2.0 2.0 0.00 0.00 0.00 34 1009.5
20260508034549 53 52 2.0 2.0 0.00 0.00 0.00 34 1009.7
20260508034047 51 20 2.0 2.0 0.00 0.00 0.00 36 1009.7
20260508033544 51 49 1.0 1.0 0.00 0.00 0.00 37 1009.7
20260508033043 50 49 1.0 1.0 0.00 0.00 0.00 38 1009.5
20260508032538 51 201 1.0 1.0 0.00 0.00 0.00 39 1009.6
20260508032036 52 65 0.0 0.0 0.00 0.00 0.00 35 1009.5
20260508031533 51 30 1.0 1.0 0.00 0.00 0.00 35 1009.5
20260508031029 52 52 0.0 1.0 0.00 0.00 0.00 35 1009.6
20260508030526 52 40 1.0 1.0 0.00 0.00 0.00 35 1009.5
20260508030024 52 26 1.0 1.0 0.00 0.00 0.00 35 1009.4
20260508025519 51 58 0.0 1.0 0.00 0.00 0.00 35 1009.4
20260508025017 51 62 0.0 0.0 0.00 0.00 0.00 36 1009.3
20260508024513 51 58 0.0 0.0 0.00 0.00 0.00 35 1009.5
20260508024010 51 58 0.0 0.0 0.00 0.00 0.00 36 1009.4
20260508023506 51 53 0.0 1.0 0.00 0.00 0.00 36 1009.0
20260508023004 52 44 0.0 0.0 0.00 0.00 0.00 36 1009.4
20260508022459 53 17 1.0 1.0 0.00 0.00 0.00 36 1009.0
20260508021956 53 46 1.0 1.0 0.00 0.00 0.00 36 1008.9
20260508021452 53 43 0.0 1.0 0.00 0.00 0.00 36 1009.0
20260508020948 53 27 1.0 2.0 0.00 0.00 0.00 35 1009.0
20260508020446 54 27 2.0 2.0 0.00 0.00 0.00 35 1008.9
20260508015943 54 31 1.0 1.0 0.00 0.00 0.00 35 1008.7
20260508015441 54 54 1.0 1.0 0.00 0.00 0.00 35 1008.8
20260508014937 54 45 1.0 1.0 0.00 0.00 0.00 35 1008.8
20260508014434 54 39 1.0 2.0 0.00 0.00 0.00 36 1008.8
20260508013930 54 22 1.0 1.0 0.00 0.00 0.00 36 1008.6
20260508013426 54 23 2.0 2.0 0.00 0.00 0.00 36 1008.7
20260508012924 55 24 1.0 1.0 0.00 0.00 0.00 35 1008.6
20260508012420 56 335 3.0 3.0 0.00 0.00 0.00 34 1008.7
20260508011918 57 22 1.0 2.0 0.00 0.00 0.00 33 1008.6
20260508011416 57 356 3.0 3.0 0.00 0.00 0.00 32 1008.6
20260508010913 57 347 3.0 3.0 0.00 0.00 0.00 33 1008.6
20260508010410 58 343 2.0 3.0 0.00 0.00 0.00 33 1008.6
20260508005907 58 352 5.0 6.0 0.00 0.00 0.00 31 1008.6
20260508005404 59 336 4.0 5.0 0.00 0.00 0.00 31 1008.4
20260508004900 59 352 5.0 5.0 0.00 0.00 0.00 30 1008.4
20260508004356 60 338 3.0 3.0 0.00 0.00 0.00 30 1008.5
20260508003853 60 336 6.0 8.0 0.00 0.00 0.00 29 1008.2
20260508003350 60 326 4.0 5.0 0.00 0.00 0.00 30 1008.6
20260508002848 61 9 3.0 6.0 0.00 0.00 0.00 30 1008.4
20260508002344 61 347 4.0 6.0 0.00 0.00 0.00 29 1008.3
20260508001840 60 324 5.0 6.0 0.00 0.00 0.00 28 1008.5
20260508001336 61 284 6.0 8.0 0.00 0.00 0.00 27 1008.7
20260508000833 62 298 7.0 8.0 0.00 0.00 0.00 27 1008.5
20260508000329 62 320 5.0 7.0 0.00 0.00 0.00 27 1008.5
20260507235826 62 280 5.0 7.0 0.00 0.00 0.00 29 1008.7
20260507235323 61 351 4.0 6.0 0.00 0.00 0.00 28 1008.8
20260507234820 61 348 6.0 7.0 0.00 0.00 0.00 27 1008.6
20260507234317 62 328 6.0 7.0 0.00 0.00 0.00 26 1008.7
20260507233813 62 348 9.0 10.0 0.00 0.00 0.00 25 1008.8
20260507233311 62 32 8.0 9.0 0.00 0.00 0.00 26 1008.7
20260507232809 62 354 3.0 3.0 0.00 0.00 0.00 29 1008.6
20260507232306 62 312 7.0 7.0 0.00 0.00 0.00 26 1008.8
20260507231802 62 340 8.0 9.0 0.00 0.00 0.00 26 1008.7
20260507231259 62 23 5.0 7.0 0.00 0.00 0.00 26 1008.7
20260507230755 62 325 8.0 10.0 0.00 0.00 0.00 27 1008.6
20260507230253 62 346 6.0 7.0 0.00 0.00 0.00 26 1008.6
20260507225752 62 276 6.0 8.0 0.00 0.00 0.00 24 1008.8
20260507225249 63 294 4.0 5.0 0.00 0.00 0.00 27 1008.7
20260507224744 62 324 7.0 7.0 0.00 0.00 0.00 27 1008.7
20260507224241 62 349 8.0 9.0 0.00 0.00 0.00 27 1008.8
20260507223738 62 256 4.0 5.0 0.00 0.00 0.00 26 1009.0
20260507223234 62 302 10.0 13.0 0.00 0.00 0.00 28 1008.8
20260507222731 62 301 7.0 8.0 0.00 0.00 0.00 27 1008.9
20260507222228 62 292 10.0 13.0 0.00 0.00 0.00 26 1009.0
20260507221725 62 286 9.0 10.0 0.00 0.00 0.00 26 1008.9
20260507221221 62 315 11.0 13.0 0.00 0.00 0.00 26 1008.9
20260507220717 62 326 8.0 9.0 0.00 0.00 0.00 28 1009.0
20260507220216 62 6 7.0 9.0 0.00 0.00 0.00 28 1009.0
20260507215711 61 330 11.0 14.0 0.00 0.00 0.00 26 1008.9
20260507215209 61 293 7.0 7.0 0.00 0.00 0.00 28 1009.5
20260507214707 62 274 9.0 10.0 0.00 0.00 0.00 28 1009.0
20260507214203 62 318 7.0 8.0 0.00 0.00 0.00 30 1009.2
20260507213659 62 262 5.0 8.0 0.00 0.00 0.00 28 1009.4
20260507213156 62 253 5.0 7.0 0.00 0.00 0.00 30 1009.5
20260507212652 61 317 9.0 10.0 0.00 0.00 0.00 29 1009.5
20260507212149 61 288 8.0 10.0 0.00 0.00 0.00 29 1009.4
20260507211646 61 307 5.0 6.0 0.00 0.00 0.00 28 1009.6
20260507211141 61 236 3.0 5.0 0.00 0.00 0.00 27 1009.8
20260507210639 61 347 6.0 9.0 0.00 0.00 0.00 28 1009.6
20260507210135 61 309 7.0 8.0 0.00 0.00 0.00 28 1009.7
20260507205632 61 313 9.0 11.0 0.00 0.00 0.00 28 1009.5
20260507205129 61 300 9.0 11.0 0.00 0.00 0.00 28 1009.6
20260507204625 61 264 5.0 6.0 0.00 0.00 0.00 29 1009.7
20260507204123 62 308 9.0 10.0 0.00 0.00 0.00 28 1009.7
20260507203621 61 299 5.0 6.0 0.00 0.00 0.00 28 1009.9
20260507203118 60 303 6.0 7.0 0.00 0.00 0.00 30 1009.8
20260507202613 61 303 4.0 6.0 0.00 0.00 0.00 33 1010.0
20260507202110 61 321 13.0 17.0 0.00 0.00 0.00 29 1010.1
20260507201605 60 237 5.0 6.0 0.00 0.00 0.00 27 1010.3
20260507201102 60 282 5.0 7.0 0.00 0.00 0.00 30 1010.2
20260507200557 60 296 11.0 13.0 0.00 0.00 0.00 29 1010.1
20260507200054 60 307 7.0 7.0 0.00 0.00 0.00 31 1009.9
20260507195551 60 294 10.0 11.0 0.00 0.00 0.00 30 1010.1
20260507195048 60 280 9.0 13.0 0.00 0.00 0.00 31 1010.2
20260507194544 60 333 7.0 10.0 0.00 0.00 0.00 32 1010.3
20260507194040 60 297 5.0 6.0 0.00 0.00 0.00 32 1010.4
20260507193538 59 243 7.0 9.0 0.00 0.00 0.00 29 1010.1
20260507193035 59 276 7.0 8.0 0.00 0.00 0.00 32 1010.4
20260507192531 59 250 8.0 9.0 0.00 0.00 0.00 28 1010.5
20260507192028 59 306 7.0 8.0 0.00 0.00 0.00 28 1010.3
20260507191523 59 318 6.0 7.0 0.00 0.00 0.00 28 1010.2
20260507191021 59 294 9.0 10.0 0.00 0.00 0.00 31 1010.1
20260507190518 59 243 4.0 5.0 0.00 0.00 0.00 32 1010.3
20260507190017 59 301 8.0 9.0 0.00 0.00 0.00 30 1010.5
20260507185514 59 257 8.0 10.0 0.00 0.00 0.00 30 1010.5
20260507185010 59 238 3.0 3.0 0.00 0.00 0.00 32 1010.5
20260507184509 59 286 7.0 8.0 0.00 0.00 0.00 31 1010.4
20260507184007 59 315 11.0 15.0 0.00 0.00 0.00 30 1010.5
20260507183502 59 324 7.0 8.0 0.00 0.00 0.00 33 1010.3
20260507183000 58 330 5.0 7.0 0.00 0.00 0.00 31 1010.7
20260507182455 58 277 7.0 7.0 0.00 0.00 0.00 31 1010.7
20260507181951 57 300 9.0 10.0 0.00 0.00 0.00 30 1010.8
20260507181448 59 237 6.0 8.0 0.00 0.00 0.00 31 1010.8
20260507180945 58 304 10.0 11.0 0.00 0.00 0.00 31 1010.8
20260507180441 58 319 5.0 7.0 0.00 0.00 0.00 32 1010.9
20260507175938 57 304 3.0 3.0 0.00 0.00 0.00 32 1010.9
20260507175434 57 336 9.0 10.0 0.00 0.00 0.00 33 1011.2
20260507174932 58 295 9.0 13.0 0.00 0.00 0.00 33 1011.1
20260507174429 57 233 4.0 5.0 0.00 0.00 0.00 35 1011.1
20260507173927 57 14 4.0 6.0 0.00 0.00 0.00 38 1011.2
20260507173424 57 223 6.0 7.0 0.00 0.00 0.00 38 1011.1
20260507172920 55 198 2.0 2.0 0.00 0.00 0.00 40 1011.2
20260507172417 55 240 3.0 5.0 0.00 0.00 0.00 35 1011.3
20260507171913 55 258 3.0 5.0 0.00 0.00 0.00 38 1011.3
20260507171409 55 277 4.0 5.0 0.00 0.00 0.00 37 1011.4
20260507170907 55 283 3.0 6.0 0.00 0.00 0.00 40 1011.3
20260507170403 55 284 9.0 11.0 0.00 0.00 0.00 39 1011.5
20260507165859 55 178 3.0 5.0 0.00 0.00 0.00 39 1011.7
20260507165355 53 141 1.0 2.0 0.00 0.00 0.00 37 1011.9
20260507164851 54 322 6.0 8.0 0.00 0.00 0.00 36 1011.9
20260507164349 54 228 5.0 5.0 0.00 0.00 0.00 40 1011.6
20260507163846 53 289 3.0 3.0 0.00 0.00 0.00 39 1012.0
20260507163343 53 339 5.0 7.0 0.00 0.00 0.00 41 1012.0
20260507162840 53 277 7.0 8.0 0.00 0.00 0.00 43 1012.0
20260507162335 52 286 4.0 7.0 0.00 0.00 0.00 46 1012.0
20260507161832 52 290 5.0 6.0 0.00 0.00 0.00 43 1012.1
20260507161329 51 174 3.0 5.0 0.00 0.00 0.00 49 1012.0
20260507160825 51 237 5.0 6.0 0.00 0.00 0.00 47 1012.1
20260507160321 51 268 4.0 5.0 0.00 0.00 0.00 49 1012.3
20260507155818 50 237 3.0 6.0 0.00 0.00 0.00 48 1012.2
20260507155314 51 240 5.0 6.0 0.00 0.00 0.00 48 1012.2
20260507154810 49 217 3.0 3.0 0.00 0.00 0.00 48 1012.4
20260507154308 49 312 4.0 5.0 0.00 0.00 0.00 50 1012.3
20260507153804 48 236 5.0 6.0 0.00 0.00 0.00 50 1012.3
20260507153301 48 284 1.0 2.0 0.00 0.00 0.00 50 1012.3
20260507152757 48 236 4.0 5.0 0.00 0.00 0.00 52 1012.5
20260507152254 47 148 1.0 1.0 0.00 0.00 0.00 54 1012.4
20260507151749 48 214 5.0 6.0 0.00 0.00 0.00 50 1012.2
20260507151246 47 254 3.0 3.0 0.00 0.00 0.00 51 1012.4
20260507150743 46 226 2.0 2.0 0.00 0.00 0.00 53 1012.6
20260507150240 46 249 2.0 3.0 0.00 0.00 0.00 52 1012.5
20260507145736 45 283 4.0 5.0 0.00 0.00 0.00 52 1012.6
20260507145232 45 240 5.0 6.0 0.00 0.00 0.00 51 1012.4
20260507144730 45 253 4.0 5.0 0.00 0.00 0.00 52 1012.4
20260507144227 44 231 2.0 2.0 0.00 0.00 0.00 52 1012.5
20260507143723 44 301 3.0 3.0 0.00 0.00 0.00 53 1012.5
20260507143221 44 174 1.0 1.0 0.00 0.00 0.00 53 1012.5
20260507142717 43 286 2.0 2.0 0.00 0.00 0.00 54 1012.4
20260507142214 43 127 0.0 1.0 0.00 0.00 0.00 58 1012.6
20260507141710 42 238 1.0 1.0 0.00 0.00 0.00 58 1012.5
20260507141207 41 133 1.0 1.0 0.00 0.00 0.00 58 1012.5
20260507140703 41 219 2.0 3.0 0.00 0.00 0.00 59 1012.5
20260507140201 41 209 1.0 2.0 0.00 0.00 0.00 59 1012.3
20260507135657 41 172 3.0 3.0 0.00 0.00 0.00 60 1012.5
20260507135155 40 200 2.0 2.0 0.00 0.00 0.00 62 1012.5
20260507134651 41 154 1.0 2.0 0.00 0.00 0.00 62 1012.3
20260507134147 39 73 1.0 1.0 0.00 0.00 0.00 64 1012.1
20260507133643 40 44 1.0 1.0 0.00 0.00 0.00 63 1012.3
20260507133141 39 151 1.0 1.0 0.00 0.00 0.00 61 1012.2
20260507132638 39 79 0.0 0.0 0.00 0.00 0.00 61 1012.3
20260507132134 39 105 0.0 0.0 0.00 0.00 0.00 61 1012.3
20260507131631 39 98 0.0 0.0 0.00 0.00 0.00 61 1012.5
20260507131129 39 103 0.0 0.0 0.00 0.00 0.00 61 1012.3
20260507130625 39 100 0.0 0.0 0.00 0.00 0.00 61 1012.1
20260507130123 39 88 0.0 0.0 0.00 0.00 0.00 61 1012.2
20260507125622 38 82 0.0 0.0 0.00 0.00 0.00 61 1012.1
20260507125119 38 86 0.0 0.0 0.00 0.00 0.00 61 1011.9
20260507124615 39 81 0.0 0.0 0.00 0.00 0.00 60 1012.1
20260507124113 39 74 0.0 0.0 0.00 0.00 0.00 62 1012.2
20260507123611 36 74 0.0 0.0 0.00 0.00 0.00 64 1012.0
20260507123107 33 74 0.0 0.0 0.00 0.00 0.00 68 1012.0
20260507122603 33 74 0.0 0.0 0.00 0.00 0.00 67 1012.1
20260507122059 32 73 0.0 0.0 0.00 0.00 0.00 70 1011.8
20260507121554 30 68 0.0 0.0 0.00 0.00 0.00 70 1011.9
20260507121051 30 85 0.0 0.0 0.00 0.00 0.00 70 1011.8
20260507120547 30 80 0.0 0.0 0.00 0.00 0.00 70 1011.8
20260507120044 30 81 0.0 0.0 0.00 0.00 0.00 70 1011.7
20260507115540 31 75 1.0 1.0 0.00 0.00 0.00 70 1011.5
20260507115036 30 75 1.0 1.0 0.00 0.00 0.00 71 1011.5
20260507114532 30 72 1.0 1.0 0.00 0.00 0.00 72 1011.5
20260507114030 30 73 2.0 2.0 0.00 0.00 0.00 72 1011.5
20260507113527 29 73 1.0 2.0 0.00 0.00 0.00 73 1011.5
20260507113024 29 71 1.0 1.0 0.00 0.00 0.00 72 1011.5
20260507112521 29 69 1.0 2.0 0.00 0.00 0.00 72 1011.4
20260507112018 29 70 1.0 2.0 0.00 0.00 0.00 72 1011.5
20260507111515 29 68 2.0 2.0 0.00 0.00 0.00 72 1011.5
20260507111011 30 75 1.0 2.0 0.00 0.00 0.00 72 1011.5
20260507110508 29 62 1.0 2.0 0.00 0.00 0.00 72 1011.6
20260507110005 29 72 1.0 1.0 0.00 0.00 0.00 73 1011.5
20260507105501 29 75 1.0 1.0 0.00 0.00 0.00 73 1011.7
20260507104958 29 68 1.0 1.0 0.00 0.00 0.00 73 1011.5
20260507104455 29 81 0.0 1.0 0.00 0.00 0.00 73 1011.6
20260507103950 28 82 0.0 1.0 0.00 0.00 0.00 73 1011.7
20260507103447 28 75 1.0 1.0 0.00 0.00 0.00 74 1011.7
20260507102944 27 85 0.0 1.0 0.00 0.00 0.00 74 1011.7
20260507102441 28 86 1.0 1.0 0.00 0.00 0.00 73 1011.8
20260507101937 28 63 1.0 1.0 0.00 0.00 0.00 73 1011.8
20260507101432 28 67 1.0 2.0 0.00 0.00 0.00 72 1011.7
20260507100929 29 63 1.0 1.0 0.00 0.00 0.00 72 1011.7
20260507100426 29 69 2.0 2.0 0.00 0.00 0.00 71 1011.9
20260507095925 29 87 0.0 0.0 0.00 0.00 0.00 71 1012.0
20260507095421 29 58 1.0 2.0 0.00 0.00 0.00 70 1011.9
20260507094919 30 71 2.0 2.0 0.00 0.00 0.00 69 1011.8